2023/04/15 23:31:55+0000,-33.93,-38.00,-37.24,-35.00,-49.23,-53.13
2023/04/15 23:32:47+0000,-33.03,-39.31,-37.11,-34.95,-49.19,-52.87
2023/04/15 23:33:39+0000,-32.38,-37.47,-37.27,-34.81,-48.91,-52.49
2023/04/15 23:34:31+0000,-33.27,-39.10,-37.18,-35.26,-48.73,-52.72
2023/04/15 23:35:23+0000,-32.87,-38.55,-37.99,-35.58,-49.04,-52.52
2023/04/15 23:36:15+0000,-33.32,-37.35,-36.98,-34.63,-48.86,-53.19
2023/04/15 23:37:07+0000,-33.32,-37.83,-37.14,-35.63,-48.94,-51.19
2023/04/15 23:37:59+0000,-33.48,-37.64,-37.68,-35.33,-49.72,-52.87
2023/04/15 23:38:51+0000,-33.72,-38.56,-37.29,-35.16,-48.95,-52.57
2023/04/15 23:39:43+0000,-32.88,-37.34,-37.25,-35.18,-49.04,-51.85
2023/04/15 23:40:35+0000,-33.08,-37.50,-37.25,-35.29,-48.89,-52.24
2023/04/15 23:41:35+0000,-33.61,-38.00,-37.14,-35.40,-48.50,-51.98
2023/04/15 23:42:27+0000,-32.68,-38.53,-36.65,-36.06,-48.86,-51.90
2023/04/15 23:43:19+0000,-33.52,-38.22,-37.39,-35.16,-49.41,-52.25
2023/04/15 23:44:11+0000,-33.21,-38.28,-37.09,-35.73,-48.62,-52.63
2023/04/15 23:45:03+0000,-33.35,-37.96,-37.06,-34.70,-48.83,-52.87
2023/04/15 23:45:55+0000,-33.74,-38.31,-36.76,-35.55,-48.73,-50.97
2023/04/15 23:46:47+0000,-33.15,-38.15,-37.06,-35.83,-48.89,-52.17
2023/04/15 23:47:39+0000,-33.26,-38.44,-37.02,-35.43,-48.52,-52.14
2023/04/15 23:48:31+0000,-32.81,-38.01,-36.84,-34.77,-49.11,-51.59
2023/04/15 23:49:23+0000,-33.28,-38.24,-36.81,-35.51,-48.29,-50.52
2023/04/15 23:50:15+0000,-32.97,-37.19,-37.07,-34.69,-49.01,-51.82
2023/04/15 23:51:14+0000,-34.10,-37.97,-36.71,-34.72,-49.20,-52.83
2023/04/15 23:52:07+0000,-33.24,-39.57,-36.61,-35.44,-49.63,-52.75
2023/04/15 23:52:59+0000,-33.28,-38.56,-36.82,-35.04,-48.88,-51.13
2023/04/15 23:53:51+0000,-33.15,-38.96,-37.63,-36.24,-49.11,-52.78
2023/04/15 23:54:43+0000,-33.31,-39.04,-36.90,-35.63,-48.94,-51.84
2023/04/15 23:55:35+0000,-33.21,-37.76,-36.98,-35.21,-48.05,-52.52
2023/04/15 23:56:27+0000,-33.37,-38.06,-37.18,-35.30,-47.91,-50.60
2023/04/15 23:57:19+0000,-33.23,-38.44,-37.08,-35.39,-48.15,-52.55
2023/04/15 23:58:11+0000,-33.59,-39.16,-37.00,-36.34,-48.30,-51.23
2023/04/15 23:59:03+0000,-33.41,-37.83,-37.02,-34.61,-46.91,-52.60
2023/04/15 23:59:55+0000,-33.17,-38.51,-36.97,-34.84,-47.47,-51.88
2023/04/16 00:00:51+0000,-32.65,-37.54,-36.83,-35.54,-48.26,-52.12
2023/04/16 00:01:50+0000,-33.29,-39.56,-37.03,-35.20,-46.88,-51.56
2023/04/16 00:02:42+0000,-33.05,-37.98,-37.16,-34.40,-47.47,-51.69
2023/04/16 00:03:34+0000,-33.21,-38.57,-37.06,-35.17,-47.96,-52.62
2023/04/16 00:04:26+0000,-33.08,-38.50,-37.40,-34.91,-48.16,-50.33
2023/04/16 00:05:19+0000,-33.16,-38.28,-36.77,-35.70,-48.06,-51.55
2023/04/16 00:06:11+0000,-33.57,-38.10,-36.58,-34.49,-48.01,-52.31
2023/04/16 00:07:03+0000,-33.00,-38.98,-37.00,-35.57,-47.86,-52.10
2023/04/16 00:07:55+0000,-32.85,-37.36,-35.95,-34.41,-47.98,-52.25
2023/04/16 00:08:47+0000,-33.28,-37.82,-37.06,-33.77,-48.08,-52.83
2023/04/16 00:09:39+0000,-32.73,-37.64,-36.69,-33.63,-48.53,-51.85
2023/04/16 00:10:31+0000,-33.89,-37.65,-36.94,-35.16,-46.83,-52.12
2023/04/16 00:11:31+0000,-33.35,-38.23,-36.69,-34.69,-47.73,-52.69
2023/04/16 00:12:23+0000,-32.70,-37.54,-37.09,-35.12,-48.44,-51.75
2023/04/16 00:13:15+0000,-33.25,-38.14,-36.81,-35.86,-48.57,-52.27
2023/04/16 00:14:07+0000,-33.08,-37.63,-37.33,-35.76,-47.17,-52.52
2023/04/16 00:14:59+0000,-33.00,-38.61,-37.03,-35.27,-47.99,-51.38
2023/04/16 00:15:51+0000,-32.91,-38.89,-36.65,-36.06,-47.88,-50.84
2023/04/16 00:16:43+0000,-33.39,-37.66,-37.33,-34.95,-48.02,-52.51
2023/04/16 00:17:35+0000,-32.80,-37.87,-37.43,-36.02,-48.68,-51.89
2023/04/16 00:18:27+0000,-33.15,-37.93,-36.88,-34.07,-48.96,-50.69
2023/04/16 00:19:19+0000,-33.72,-38.05,-36.88,-35.95,-47.82,-51.51
2023/04/16 00:20:11+0000,-32.94,-37.76,-36.25,-35.26,-48.08,-51.88
2023/04/16 00:21:10+0000,-33.75,-37.55,-36.91,-34.78,-48.78,-51.59
2023/04/16 00:22:02+0000,-33.23,-38.02,-37.21,-36.11,-48.16,-52.45
2023/04/16 00:22:54+0000,-33.06,-37.02,-36.86,-35.23,-49.30,-52.02
2023/04/16 00:23:47+0000,-33.44,-37.27,-36.79,-35.96,-48.47,-52.61
2023/04/16 00:24:39+0000,-33.88,-37.30,-37.61,-35.00,-46.98,-50.55
2023/04/16 00:25:31+0000,-33.50,-37.97,-36.91,-34.94,-47.55,-51.87
2023/04/16 00:26:23+0000,-32.42,-37.25,-37.30,-37.74,-48.04,-51.71
2023/04/16 00:27:15+0000,-32.93,-37.46,-37.30,-37.44,-47.48,-50.89
2023/04/16 00:28:07+0000,-33.17,-37.59,-37.22,-37.57,-48.65,-51.12
2023/04/16 00:28:59+0000,-33.31,-36.58,-38.00,-36.59,-48.26,-51.94
2023/04/16 00:29:51+0000,-33.18,-36.43,-37.55,-37.90,-48.15,-52.43
2023/04/16 00:30:43+0000,-33.04,-37.79,-38.07,-38.00,-49.36,-51.36
2023/04/16 00:31:41+0000,-32.95,-36.73,-37.25,-36.42,-48.65,-51.52
2023/04/16 00:32:33+0000,-32.97,-36.39,-37.48,-36.99,-48.60,-51.76
2023/04/16 00:33:25+0000,-32.61,-36.47,-37.85,-37.24,-49.31,-51.68
2023/04/16 00:34:17+0000,-33.12,-37.21,-36.99,-36.88,-47.93,-53.00
2023/04/16 00:35:09+0000,-33.62,-37.38,-37.65,-36.58,-49.02,-51.88
2023/04/16 00:36:01+0000,-32.99,-37.62,-36.73,-37.63,-49.03,-52.69
2023/04/16 00:36:53+0000,-33.46,-37.52,-37.44,-37.77,-48.67,-52.12
2023/04/16 00:37:45+0000,-33.18,-37.35,-37.23,-37.26,-47.51,-51.51
2023/04/16 00:38:38+0000,-33.59,-37.68,-36.59,-36.91,-47.65,-52.90
2023/04/16 00:39:30+0000,-33.84,-37.41,-36.46,-37.16,-48.24,-52.28
2023/04/16 00:40:22+0000,-33.07,-37.37,-37.09,-37.73,-47.48,-51.86
2023/04/16 00:41:25+0000,-32.49,-37.30,-36.76,-36.75,-48.18,-51.68
2023/04/16 00:42:17+0000,-33.31,-36.74,-37.06,-37.41,-47.74,-52.16
2023/04/16 00:43:09+0000,-32.79,-37.59,-36.63,-37.27,-47.80,-50.16
2023/04/16 00:44:01+0000,-33.19,-37.71,-36.54,-37.49,-47.78,-53.34
2023/04/16 00:44:53+0000,-33.17,-37.89,-37.19,-36.98,-49.56,-53.58
2023/04/16 00:45:45+0000,-32.98,-38.24,-36.84,-37.52,-48.40,-51.41
2023/04/16 00:46:37+0000,-32.50,-37.87,-37.34,-37.25,-49.46,-50.65
2023/04/16 00:47:29+0000,-33.29,-38.57,-37.28,-37.50,-50.18,-52.59
2023/04/16 00:48:21+0000,-32.63,-37.38,-36.53,-36.75,-48.24,-52.90
2023/04/16 00:49:13+0000,-33.35,-38.00,-37.26,-36.37,-48.87,-51.91
2023/04/16 00:50:06+0000,-33.03,-38.00,-37.26,-35.87,-49.95,-52.94
2023/04/16 00:51:04+0000,-33.27,-37.71,-36.73,-36.13,-48.73,-53.29
2023/04/16 00:51:57+0000,-33.16,-38.14,-37.06,-34.27,-48.94,-52.89
2023/04/16 00:52:49+0000,-32.93,-37.25,-37.42,-35.89,-48.31,-53.19
2023/04/16 00:53:41+0000,-33.43,-37.98,-36.66,-35.40,-47.76,-52.34
2023/04/16 00:54:33+0000,-33.05,-37.70,-37.04,-35.63,-47.79,-53.01
2023/04/16 00:55:25+0000,-32.99,-38.13,-36.74,-36.04,-48.33,-52.45
2023/04/16 00:56:17+0000,-33.59,-38.17,-36.79,-35.57,-48.29,-52.46
2023/04/16 00:57:09+0000,-32.82,-36.99,-36.50,-35.58,-48.01,-51.98
2023/04/16 00:58:01+0000,-33.51,-37.86,-36.74,-35.45,-48.71,-53.10
2023/04/16 00:58:53+0000,-33.07,-38.55,-37.51,-35.82,-48.89,-52.93
2023/04/16 00:59:45+0000,-33.81,-38.40,-37.03,-34.99,-49.10,-52.46
2023/04/16 01:00:37+0000,-33.41,-38.36,-36.70,-35.24,-47.92,-51.43
2023/04/16 01:01:37+0000,-33.32,-38.40,-36.64,-35.13,-47.67,-52.01
2023/04/16 01:02:29+0000,-33.05,-37.86,-36.72,-35.01,-48.36,-52.81
2023/04/16 01:03:21+0000,-33.70,-37.66,-36.50,-35.67,-48.60,-52.97
2023/04/16 01:04:13+0000,-33.39,-37.55,-37.17,-34.55,-49.27,-52.00
2023/04/16 01:05:05+0000,-33.34,-37.55,-37.11,-34.94,-48.69,-51.17
2023/04/16 01:05:57+0000,-33.60,-37.66,-36.68,-35.11,-48.57,-52.46
2023/04/16 01:06:49+0000,-32.84,-38.08,-36.91,-35.54,-49.18,-52.77
2023/04/16 01:07:41+0000,-33.33,-37.33,-36.73,-35.30,-48.06,-52.63
2023/04/16 01:08:33+0000,-33.73,-37.50,-36.65,-35.29,-49.02,-52.11
2023/04/16 01:09:25+0000,-33.80,-37.03,-36.91,-36.43,-50.00,-52.52
2023/04/16 01:10:17+0000,-33.17,-37.59,-37.01,-35.08,-49.00,-52.90
2023/04/16 01:11:17+0000,-33.52,-37.82,-36.64,-35.03,-49.26,-53.89
2023/04/16 01:12:09+0000,-32.55,-37.76,-37.26,-34.99,-49.26,-53.21
2023/04/16 01:13:01+0000,-33.24,-37.57,-37.35,-36.56,-48.48,-52.35
2023/04/16 01:13:53+0000,-32.79,-36.93,-37.30,-34.81,-48.73,-52.21
2023/04/16 01:14:45+0000,-32.76,-37.04,-36.99,-35.41,-48.76,-51.99
2023/04/16 01:15:37+0000,-33.31,-36.87,-36.71,-35.00,-48.94,-52.38
2023/04/16 01:16:29+0000,-33.67,-37.00,-36.72,-36.40,-48.04,-52.13
2023/04/16 01:17:21+0000,-33.63,-36.48,-36.93,-35.50,-48.41,-50.48
2023/04/16 01:18:13+0000,-33.12,-36.68,-37.03,-35.77,-47.83,-50.77
2023/04/16 01:19:05+0000,-33.75,-36.61,-36.78,-35.34,-48.10,-52.81
2023/04/16 01:19:57+0000,-32.68,-36.81,-37.22,-35.19,-48.36,-52.29
2023/04/16 01:20:49+0000,-33.93,-36.65,-37.07,-36.21,-48.45,-52.33
2023/04/16 01:21:56+0000,-33.61,-36.77,-37.52,-35.44,-48.59,-52.03
2023/04/16 01:22:48+0000,-32.86,-37.92,-36.60,-34.62,-48.13,-52.15
2023/04/16 01:23:40+0000,-33.34,-37.80,-36.89,-35.00,-48.56,-51.03
2023/04/16 01:24:32+0000,-32.84,-36.86,-36.85,-35.78,-47.55,-51.86
2023/04/16 01:25:24+0000,-32.65,-37.25,-36.16,-34.44,-49.28,-52.04
2023/04/16 01:26:16+0000,-33.53,-36.60,-36.19,-35.70,-48.74,-52.04
2023/04/16 01:27:08+0000,-33.48,-37.63,-36.23,-35.32,-48.22,-51.75
2023/04/16 01:28:00+0000,-33.61,-36.88,-36.40,-34.76,-46.98,-51.44
2023/04/16 01:28:52+0000,-33.61,-38.28,-36.33,-35.07,-48.19,-52.04
2023/04/16 01:29:44+0000,-33.47,-37.68,-36.98,-35.60,-48.48,-51.45
2023/04/16 01:30:37+0000,-33.47,-37.62,-36.52,-34.55,-46.94,-51.34
2023/04/16 01:31:36+0000,-33.35,-37.37,-37.08,-35.46,-46.41,-51.25
2023/04/16 01:32:28+0000,-33.45,-37.53,-37.15,-34.63,-46.28,-51.34
2023/04/16 01:33:20+0000,-32.58,-38.08,-36.55,-35.69,-47.25,-51.36
2023/04/16 01:34:12+0000,-33.53,-37.02,-36.53,-35.55,-47.99,-52.27
2023/04/16 01:35:04+0000,-33.82,-37.19,-36.22,-35.46,-47.57,-51.36
2023/04/16 01:35:56+0000,-34.04,-37.21,-36.08,-34.82,-48.22,-51.50
2023/04/16 01:36:48+0000,-32.74,-36.99,-36.24,-34.91,-47.37,-52.34
2023/04/16 01:37:40+0000,-33.42,-37.68,-36.55,-35.20,-48.01,-51.68
2023/04/16 01:38:32+0000,-33.30,-38.10,-36.50,-34.86,-46.51,-51.77
2023/04/16 01:39:24+0000,-33.16,-36.26,-36.54,-34.48,-47.79,-52.17
2023/04/16 01:40:16+0000,-33.70,-37.67,-37.18,-34.86,-46.00,-52.12
2023/04/16 01:41:18+0000,-32.83,-37.32,-36.15,-35.43,-47.32,-52.07
2023/04/16 01:42:10+0000,-33.34,-37.95,-36.62,-34.47,-47.12,-51.20
2023/04/16 01:43:02+0000,-33.15,-37.76,-37.07,-33.97,-47.21,-51.48
2023/04/16 01:43:54+0000,-32.86,-38.06,-36.43,-33.53,-46.93,-51.82
2023/04/16 01:44:46+0000,-32.33,-38.46,-36.85,-34.84,-46.65,-52.02
2023/04/16 01:45:38+0000,-32.77,-37.54,-36.29,-35.09,-46.54,-51.58
2023/04/16 01:46:30+0000,-32.98,-37.62,-37.00,-33.67,-47.22,-52.15
2023/04/16 01:47:22+0000,-32.63,-37.33,-36.56,-34.97,-46.21,-51.78
2023/04/16 01:48:14+0000,-33.29,-36.27,-36.27,-34.79,-46.98,-51.42
2023/04/16 01:49:06+0000,-33.40,-38.08,-36.53,-35.73,-48.01,-51.78
2023/04/16 01:49:58+0000,-33.30,-37.00,-36.50,-36.71,-48.14,-51.62
2023/04/16 01:50:50+0000,-33.34,-37.82,-36.25,-37.45,-47.09,-51.68
2023/04/16 01:51:48+0000,-32.31,-36.58,-36.36,-37.70,-46.98,-52.20
2023/04/16 01:52:40+0000,-33.20,-37.94,-36.07,-37.47,-48.30,-51.85
2023/04/16 01:53:32+0000,-33.29,-36.81,-36.84,-33.94,-48.50,-52.27
2023/04/16 01:54:24+0000,-32.89,-38.39,-36.23,-35.58,-48.16,-51.96
2023/04/16 01:55:16+0000,-32.82,-37.94,-36.07,-37.56,-45.59,-52.69
2023/04/16 01:56:08+0000,-33.81,-37.95,-36.45,-37.49,-47.20,-52.45
2023/04/16 01:57:00+0000,-33.09,-37.24,-36.64,-34.05,-48.01,-52.92
2023/04/16 01:57:52+0000,-33.52,-37.50,-36.63,-35.01,-47.02,-52.57
2023/04/16 01:58:45+0000,-32.73,-37.53,-37.24,-35.76,-47.21,-52.96
2023/04/16 01:59:37+0000,-32.74,-37.44,-36.19,-35.95,-47.48,-52.59
2023/04/16 02:00:29+0000,-32.67,-37.78,-36.35,-34.20,-47.41,-53.32
2023/04/16 02:01:27+0000,-33.30,-37.71,-36.59,-34.45,-47.95,-53.01
2023/04/16 02:02:20+0000,-33.33,-36.77,-36.21,-34.80,-46.97,-53.03
2023/04/16 02:03:12+0000,-32.89,-37.77,-36.29,-35.41,-47.52,-52.68
2023/04/16 02:04:04+0000,-33.29,-37.99,-35.87,-35.52,-47.94,-52.33
2023/04/16 02:04:56+0000,-32.93,-37.19,-36.82,-34.83,-47.47,-52.64
2023/04/16 02:05:48+0000,-32.66,-36.00,-36.61,-35.52,-46.93,-52.56
2023/04/16 02:06:40+0000,-32.53,-36.08,-36.06,-35.19,-47.68,-52.33
2023/04/16 02:07:32+0000,-32.22,-37.11,-35.67,-34.28,-48.23,-52.65
2023/04/16 02:08:24+0000,-32.78,-36.77,-35.96,-34.17,-47.86,-52.36
2023/04/16 02:09:16+0000,-33.27,-37.53,-35.93,-34.46,-46.91,-52.80
2023/04/16 02:10:08+0000,-32.91,-37.17,-35.64,-34.93,-47.26,-52.36
2023/04/16 02:11:07+0000,-32.75,-37.05,-36.17,-35.06,-47.31,-53.01
2023/04/16 02:11:59+0000,-33.09,-37.69,-36.09,-34.93,-47.11,-51.90
2023/04/16 02:12:51+0000,-32.86,-37.38,-36.31,-34.77,-47.73,-52.69
2023/04/16 02:13:43+0000,-33.06,-37.68,-36.01,-34.89,-47.36,-52.62
2023/04/16 02:14:35+0000,-32.48,-37.46,-35.79,-35.00,-47.63,-52.39
2023/04/16 02:15:27+0000,-33.14,-37.52,-35.97,-34.96,-47.56,-52.69
2023/04/16 02:16:19+0000,-32.56,-38.81,-36.36,-35.01,-47.77,-52.64
2023/04/16 02:17:11+0000,-32.18,-38.35,-36.37,-35.30,-47.00,-51.93
2023/04/16 02:18:03+0000,-32.50,-37.10,-36.01,-35.35,-47.96,-52.27
2023/04/16 02:18:55+0000,-32.44,-37.41,-35.63,-35.38,-47.63,-52.07
2023/04/16 02:19:47+0000,-32.23,-34.81,-36.01,-35.97,-47.17,-52.26
2023/04/16 02:20:40+0000,-33.05,-36.75,-36.46,-36.08,-47.64,-52.58
2023/04/16 02:21:39+0000,-33.32,-37.09,-35.22,-35.42,-47.65,-52.14
2023/04/16 02:22:31+0000,-32.82,-37.36,-35.30,-34.17,-47.58,-52.51
2023/04/16 02:23:23+0000,-32.91,-37.37,-36.00,-33.56,-46.95,-52.42
2023/04/16 02:24:15+0000,-33.53,-36.46,-35.65,-35.22,-47.55,-52.04
2023/04/16 02:25:07+0000,-32.79,-37.22,-35.77,-34.30,-47.93,-52.36
2023/04/16 02:25:59+0000,-31.94,-36.53,-36.62,-34.50,-47.48,-51.83
2023/04/16 02:26:51+0000,-33.01,-36.99,-36.58,-34.12,-47.07,-52.05
2023/04/16 02:27:43+0000,-33.09,-36.79,-36.39,-34.50,-45.01,-50.72
2023/04/16 02:28:35+0000,-33.26,-36.79,-35.26,-35.46,-45.18,-50.52
2023/04/16 02:29:27+0000,-32.90,-36.96,-35.94,-34.91,-44.40,-50.53
2023/04/16 02:30:19+0000,-33.17,-35.95,-36.14,-34.91,-44.32,-50.54
2023/04/16 02:31:18+0000,-32.38,-36.71,-35.62,-34.98,-45.57,-50.07
2023/04/16 02:32:10+0000,-32.77,-36.69,-36.28,-35.68,-46.22,-51.22
2023/04/16 02:33:02+0000,-33.40,-36.98,-31.69,-35.74,-45.25,-51.06
2023/04/16 02:33:54+0000,-32.88,-36.76,-36.04,-35.61,-45.84,-51.10
2023/04/16 02:34:46+0000,-32.54,-37.26,-35.67,-36.00,-45.26,-51.25
2023/04/16 02:35:38+0000,-33.57,-36.58,-36.03,-35.82,-45.77,-51.36
2023/04/16 02:36:30+0000,-32.63,-36.72,-36.71,-34.19,-45.42,-50.99
2023/04/16 02:37:22+0000,-33.46,-37.93,-36.43,-34.89,-45.91,-50.81
2023/04/16 02:38:14+0000,-32.68,-37.08,-36.63,-35.02,-45.91,-51.50
2023/04/16 02:39:07+0000,-32.87,-37.01,-35.45,-35.28,-45.23,-51.26
2023/04/16 02:39:59+0000,-33.45,-36.65,-37.24,-35.43,-45.28,-50.53
2023/04/16 02:40:51+0000,-32.60,-36.57,-36.41,-35.75,-45.27,-50.35
2023/04/16 02:41:50+0000,-32.77,-36.94,-36.68,-35.37,-45.59,-50.47
2023/04/16 02:42:42+0000,-32.33,-37.14,-36.56,-34.82,-45.76,-50.14
2023/04/16 02:43:34+0000,-33.17,-36.81,-35.37,-35.43,-45.55,-50.38
2023/04/16 02:44:26+0000,-33.03,-37.13,-36.90,-34.50,-46.20,-50.93
2023/04/16 02:45:18+0000,-32.60,-36.22,-36.56,-35.62,-45.44,-50.55
2023/04/16 02:46:10+0000,-33.21,-36.59,-35.77,-35.37,-45.93,-50.52
2023/04/16 02:47:02+0000,-33.35,-36.88,-36.84,-34.45,-44.76,-51.01
2023/04/16 02:47:54+0000,-33.02,-37.14,-35.43,-34.98,-45.73,-50.79
2023/04/16 02:48:46+0000,-32.36,-36.43,-36.81,-36.38,-45.20,-50.89
2023/04/16 02:49:38+0000,-31.57,-37.09,-36.08,-36.31,-44.75,-50.84
2023/04/16 02:50:30+0000,-32.26,-36.87,-36.61,-35.62,-45.08,-50.66
2023/04/16 02:51:30+0000,-33.11,-37.82,-36.88,-36.04,-46.29,-50.34
2023/04/16 02:52:22+0000,-32.73,-37.21,-36.22,-35.47,-45.42,-50.00
2023/04/16 02:53:14+0000,-32.64,-37.08,-37.29,-35.07,-45.23,-50.71
2023/04/16 02:54:06+0000,-32.88,-37.66,-36.75,-36.61,-45.21,-51.09
2023/04/16 02:54:58+0000,-32.81,-36.86,-37.25,-36.21,-45.51,-50.38
2023/04/16 02:55:50+0000,-33.21,-36.92,-37.21,-36.39,-45.40,-50.86
2023/04/16 02:56:42+0000,-32.47,-37.47,-36.86,-35.19,-45.85,-50.36
2023/04/16 02:57:34+0000,-32.79,-36.97,-36.01,-36.65,-45.86,-50.70
2023/04/16 02:58:26+0000,-32.85,-36.60,-36.64,-34.53,-46.26,-50.61
2023/04/16 02:59:18+0000,-32.45,-38.00,-36.94,-35.80,-44.43,-50.31
2023/04/16 03:00:10+0000,-33.19,-36.83,-36.56,-34.77,-45.85,-50.57
2023/04/16 03:01:10+0000,-32.87,-37.49,-37.02,-36.61,-46.32,-49.99
2023/04/16 03:02:03+0000,-32.38,-38.36,-36.32,-37.63,-46.05,-50.66
2023/04/16 03:02:55+0000,-32.61,-36.52,-37.22,-37.67,-45.61,-50.65
2023/04/16 03:03:47+0000,-32.19,-37.21,-36.42,-36.53,-44.16,-50.61
2023/04/16 03:04:39+0000,-32.43,-38.11,-36.31,-37.95,-45.02,-50.11
2023/04/16 03:05:31+0000,-32.55,-37.44,-36.32,-38.17,-45.32,-51.07
2023/04/16 03:06:23+0000,-32.69,-37.00,-35.87,-38.25,-43.96,-50.53
2023/04/16 03:07:15+0000,-32.37,-36.82,-36.38,-36.56,-44.34,-50.34
2023/04/16 03:08:07+0000,-32.57,-37.57,-36.78,-38.91,-44.98,-50.26
2023/04/16 03:08:59+0000,-33.09,-36.29,-36.66,-36.92,-45.17,-50.19
2023/04/16 03:09:51+0000,-32.97,-37.52,-36.75,-37.78,-45.64,-50.35
2023/04/16 03:10:43+0000,-31.61,-36.18,-36.98,-38.16,-45.82,-50.42
2023/04/16 03:11:42+0000,-32.21,-36.76,-36.89,-37.80,-46.38,-50.16
2023/04/16 03:12:35+0000,-33.21,-35.63,-36.54,-38.87,-45.64,-50.18
2023/04/16 03:13:27+0000,-32.26,-37.27,-36.59,-36.21,-46.27,-50.41
2023/04/16 03:14:19+0000,-31.26,-36.60,-36.25,-35.14,-46.07,-50.66
2023/04/16 03:15:11+0000,-33.12,-36.20,-36.02,-36.23,-46.18,-50.47
2023/04/16 03:16:03+0000,-33.08,-36.89,-36.86,-35.81,-46.20,-50.77
2023/04/16 03:16:55+0000,-32.39,-36.63,-36.10,-35.12,-46.40,-50.01
2023/04/16 03:17:47+0000,-33.15,-35.89,-36.49,-35.68,-46.46,-50.67
2023/04/16 03:18:39+0000,-32.36,-36.59,-37.31,-35.24,-46.55,-50.54
2023/04/16 03:19:31+0000,-32.91,-36.05,-36.90,-34.48,-46.18,-50.69
2023/04/16 03:20:23+0000,-33.44,-36.69,-36.33,-34.88,-46.19,-51.09
2023/04/16 03:21:22+0000,-32.66,-36.68,-35.79,-34.87,-46.70,-50.60
2023/04/16 03:22:14+0000,-33.04,-36.34,-36.57,-34.90,-46.49,-50.71
2023/04/16 03:23:07+0000,-33.17,-36.84,-35.95,-35.74,-46.25,-50.31
2023/04/16 03:23:59+0000,-31.95,-36.84,-37.24,-34.80,-46.82,-50.50
2023/04/16 03:24:51+0000,-32.03,-37.46,-36.12,-34.61,-46.32,-50.47
2023/04/16 03:25:43+0000,-33.05,-35.92,-36.65,-35.02,-46.14,-50.47
2023/04/16 03:26:35+0000,-33.38,-36.70,-35.82,-35.34,-46.29,-50.70
2023/04/16 03:27:27+0000,-33.81,-36.38,-36.91,-35.15,-46.69,-51.14
2023/04/16 03:28:19+0000,-32.98,-36.85,-36.83,-35.76,-46.85,-50.58
2023/04/16 03:29:11+0000,-32.92,-35.58,-36.15,-34.79,-46.02,-50.89
2023/04/16 03:30:03+0000,-33.23,-36.09,-36.65,-34.38,-46.50,-50.50
2023/04/16 03:31:02+0000,-32.66,-36.74,-36.41,-34.96,-46.28,-50.45
2023/04/16 03:31:54+0000,-33.43,-36.33,-35.50,-34.74,-45.97,-50.69
2023/04/16 03:32:46+0000,-32.88,-35.09,-35.76,-35.65,-46.26,-50.20
2023/04/16 03:33:38+0000,-32.94,-36.36,-36.25,-35.63,-46.21,-50.54
2023/04/16 03:34:30+0000,-33.06,-36.21,-36.90,-35.01,-45.66,-50.39
2023/04/16 03:35:22+0000,-32.79,-36.97,-35.63,-34.69,-46.18,-50.21
2023/04/16 03:36:14+0000,-32.61,-36.46,-36.67,-35.54,-46.26,-50.56
2023/04/16 03:37:06+0000,-32.72,-36.44,-36.74,-35.96,-47.40,-50.95
2023/04/16 03:37:58+0000,-33.06,-36.57,-36.81,-34.39,-47.08,-50.08
2023/04/16 03:38:50+0000,-33.53,-35.69,-35.49,-35.48,-47.20,-51.34
2023/04/16 03:39:42+0000,-33.26,-35.84,-36.86,-35.54,-47.36,-50.52
2023/04/16 03:40:35+0000,-32.47,-35.61,-35.90,-35.20,-46.86,-50.60
2023/04/16 03:41:34+0000,-32.87,-34.07,-36.07,-35.69,-47.30,-50.47
2023/04/16 03:42:26+0000,-32.83,-35.26,-35.79,-34.93,-47.42,-50.98
2023/04/16 03:43:18+0000,-33.30,-36.04,-36.51,-35.69,-46.38,-50.78
2023/04/16 03:44:10+0000,-31.62,-35.34,-36.75,-36.02,-46.89,-50.45
2023/04/16 03:45:02+0000,-32.77,-36.56,-36.26,-35.61,-47.31,-50.74
2023/04/16 03:45:54+0000,-32.48,-36.26,-35.77,-35.29,-47.39,-50.83
2023/04/16 03:46:46+0000,-32.73,-35.77,-35.98,-35.74,-47.22,-51.23
2023/04/16 03:47:38+0000,-32.15,-36.67,-36.35,-36.43,-47.26,-51.04
2023/04/16 03:48:30+0000,-32.91,-35.56,-36.42,-35.29,-47.54,-51.03
2023/04/16 03:49:22+0000,-33.06,-36.68,-34.98,-35.85,-47.39,-50.40
2023/04/16 03:50:14+0000,-32.55,-37.02,-37.24,-36.28,-47.71,-50.45
2023/04/16 03:51:14+0000,-31.99,-36.13,-37.75,-35.47,-47.59,-51.12
2023/04/16 03:52:06+0000,-32.57,-36.07,-36.91,-36.10,-48.42,-51.05
2023/04/16 03:52:58+0000,-32.88,-36.42,-35.33,-35.50,-48.88,-50.81
2023/04/16 03:53:50+0000,-31.74,-35.96,-35.66,-36.08,-48.02,-51.35
2023/04/16 03:54:42+0000,-32.40,-35.69,-36.62,-35.76,-48.32,-51.65
2023/04/16 03:55:34+0000,-32.40,-35.48,-36.41,-35.64,-47.90,-51.72
2023/04/16 03:56:26+0000,-32.45,-34.93,-36.59,-34.67,-47.52,-50.85
2023/04/16 03:57:18+0000,-32.42,-35.70,-36.23,-36.03,-47.67,-51.70
2023/04/16 03:58:10+0000,-32.81,-36.71,-36.22,-36.31,-47.22,-51.16
2023/04/16 03:59:02+0000,-32.58,-35.02,-36.24,-34.77,-46.74,-50.86
2023/04/16 03:59:54+0000,-32.80,-36.94,-36.42,-34.40,-46.82,-50.84
2023/04/16 04:00:46+0000,-33.11,-36.03,-36.50,-34.85,-46.88,-50.80
2023/04/16 04:01:46+0000,-32.53,-36.91,-36.03,-35.57,-47.00,-50.63
2023/04/16 04:02:38+0000,-32.54,-37.29,-36.84,-35.36,-46.72,-50.45
2023/04/16 04:03:30+0000,-32.55,-35.60,-37.07,-35.75,-47.36,-49.96
2023/04/16 04:04:22+0000,-32.32,-36.20,-36.28,-34.56,-46.65,-50.39
2023/04/16 04:05:14+0000,-33.04,-37.23,-35.83,-35.33,-46.82,-50.29
2023/04/16 04:06:06+0000,-32.23,-37.76,-36.98,-35.08,-46.97,-50.24
2023/04/16 04:06:58+0000,-32.57,-35.67,-36.50,-34.99,-46.47,-50.38
2023/04/16 04:07:50+0000,-31.70,-37.46,-35.61,-34.73,-46.03,-50.67
2023/04/16 04:08:42+0000,-32.54,-37.12,-37.08,-35.11,-46.06,-50.92
2023/04/16 04:09:34+0000,-32.57,-35.37,-36.47,-35.20,-46.67,-50.66
2023/04/16 04:10:26+0000,-32.36,-35.39,-37.45,-34.34,-47.00,-50.06
2023/04/16 04:11:25+0000,-32.90,-35.23,-34.59,-34.43,-46.84,-51.17
2023/04/16 04:12:17+0000,-32.37,-35.68,-36.40,-36.24,-47.38,-50.77
2023/04/16 04:13:09+0000,-32.72,-39.72,-36.79,-35.84,-46.64,-50.66
2023/04/16 04:14:01+0000,-32.91,-38.20,-36.98,-34.75,-46.65,-50.00
2023/04/16 04:14:53+0000,-32.69,-39.87,-35.86,-34.11,-46.29,-50.80
2023/04/16 04:15:45+0000,-32.69,-36.70,-36.75,-35.89,-47.05,-50.57
2023/04/16 04:16:38+0000,-32.45,-39.63,-36.47,-34.88,-46.91,-50.68
2023/04/16 04:17:30+0000,-32.44,-37.90,-36.07,-35.28,-47.07,-50.75
2023/04/16 04:18:22+0000,-33.54,-40.40,-35.99,-34.77,-46.56,-50.43
2023/04/16 04:19:14+0000,-32.51,-37.99,-36.77,-34.73,-45.98,-50.79
2023/04/16 04:20:06+0000,-32.33,-39.33,-36.79,-35.73,-46.00,-50.19
2023/04/16 04:21:05+0000,-33.02,-40.20,-35.98,-36.02,-46.42,-50.31
2023/04/16 04:21:57+0000,-33.06,-38.84,-36.80,-35.19,-47.12,-50.72
2023/04/16 04:22:49+0000,-33.13,-39.05,-36.48,-36.29,-46.66,-51.24
2023/04/16 04:23:41+0000,-32.80,-38.83,-35.65,-35.00,-46.62,-50.79
2023/04/16 04:24:33+0000,-32.71,-40.30,-35.76,-36.35,-46.91,-50.09
2023/04/16 04:25:25+0000,-32.73,-40.03,-35.93,-35.58,-46.24,-50.74
2023/04/16 04:26:17+0000,-32.28,-40.12,-33.97,-35.09,-46.33,-50.49
2023/04/16 04:27:09+0000,-32.54,-40.15,-36.31,-35.27,-45.89,-50.87
2023/04/16 04:28:01+0000,-33.01,-38.78,-37.04,-35.70,-45.98,-50.93
2023/04/16 04:28:53+0000,-32.61,-41.87,-35.87,-35.32,-46.36,-50.32
2023/04/16 04:29:45+0000,-33.21,-40.23,-36.63,-35.74,-46.34,-50.51
2023/04/16 04:30:37+0000,-32.74,-40.41,-36.77,-35.60,-45.71,-50.31
2023/04/16 04:31:37+0000,-33.44,-37.60,-36.83,-36.04,-46.34,-51.42
2023/04/16 04:32:29+0000,-33.11,-40.11,-37.31,-35.11,-46.38,-51.04
2023/04/16 04:33:21+0000,-32.67,-41.15,-35.55,-35.13,-46.17,-50.97
2023/04/16 04:34:13+0000,-32.92,-37.87,-37.30,-35.48,-46.79,-50.99
2023/04/16 04:35:05+0000,-32.94,-38.15,-36.78,-35.86,-46.15,-50.47
2023/04/16 04:35:57+0000,-32.63,-38.76,-34.82,-34.40,-46.34,-50.59
2023/04/16 04:36:49+0000,-33.05,-39.09,-36.41,-35.20,-46.66,-50.45
2023/04/16 04:37:41+0000,-32.21,-40.05,-36.89,-35.73,-46.56,-50.99
2023/04/16 04:38:33+0000,-33.18,-39.46,-36.82,-34.72,-46.33,-50.76
2023/04/16 04:39:25+0000,-32.95,-39.70,-35.41,-34.88,-46.70,-51.12
2023/04/16 04:40:17+0000,-33.06,-39.45,-36.59,-34.85,-46.38,-51.13
2023/04/16 04:41:17+0000,-33.42,-39.63,-35.88,-37.81,-46.58,-50.60
2023/04/16 04:42:09+0000,-33.05,-38.79,-36.64,-38.30,-46.29,-50.91
2023/04/16 04:43:01+0000,-33.43,-39.43,-36.69,-36.22,-46.39,-50.63
2023/04/16 04:43:53+0000,-32.66,-40.07,-35.24,-36.05,-46.74,-51.14
2023/04/16 04:44:45+0000,-32.84,-38.61,-36.42,-36.86,-47.15,-50.65
2023/04/16 04:45:37+0000,-33.67,-40.75,-36.03,-38.06,-46.18,-50.83